Location: Valentinhaft
(48.0370°N, 13.1914°E)
Time: 23:35:32
(UTC+01:00)

ISS - Visible Passes

Search period start: 14 November 2019 00:00
Search period end: 24 November 2019 00:00
Orbit: 412 x 421 km, 51.6° (Epoch: 15 November)

Date Brightness Start Highest point End Pass type
(mag) Time Alt. Az. Time Alt. Az. Time Alt. Az.
22 Nov -1.9 18:28:04 10° SSW 18:29:50 22° S 18:29:50 22° S visible
23 Nov -1.9 17:40:19 10° S 17:42:42 18° SE 17:43:35 17° ESE visible
23 Nov -0.8 19:15:42 10° WSW 19:16:29 16° WSW 19:16:29 16° WSW visible
